User: anonymous   Login
Location: Morlupo
(42.1333°N, 12.5000°E)
Time: 05:32:33
(UTC+00:00)
Language:

Cosmos 372 Rocket - Orbit

View from above orbital plane
View from above orbital plane
View from above satellite
View from above satellite

Ground track
Ground track

The orbit data is extracted from the following two-line orbital elements,

1  4589U 70086B   20333.55918373 +.00000156 +00000-0 +55760-4 0  9998
2  4589 074.0583 146.7809 0020050 042.1062 318.1630 14.41610194628393
Epoch (UTC): 28 November 2020 13:25:13
Eccentricity: 0.0020050
inclination: 74.0583°
perigee height: 739 km
apogee height: 767 km
right ascension of ascending node: 146.7809°
argument of perigee: 42.1062°
revolutions per day: 14.41610194
mean anomaly at epoch: 318.1630°
orbit number at epoch: 62839

The dashed part of the orbit path shows where the satellite is in the earth's shadow,  

DLR